Wind_Speed
10 10 11 14 7 8 18 22 22 26 18 23 26 12 7 14 16 4 15 8 30 25 24 22 21 21 21 22 22 19 19 19 17 18 18 17 15 14 12 11 9 8 7 7 6 5 5 5 4
10 14 16 6 9 15 16 22 25 23 20 12 9 3 1 19 16 12 6 10 30 24 24 23 21 21 21 23 22 20 20 19 17 16 16 16 14 13 11 9 8 7 7 6 5 5 4 3 2
12 15 9 6 15 18 18 24 21 24 11 9 4 4 4 7 19 23 18 33 30 25 22 24 22 21 21 24 22 20 21 19 17 16 14 14 13 12 11 9 8 7 7 5 5 3 2 1 2
9 7 7 14 21 25 27 24 27 18 15 13 6 4 10 15 10 18 23 32 28 25 22 25 21 21 22 26 22 21 20 18 16 14 13 13 12 12 10 9 9 8 6 5 3 1 1 2 5
18 8 11 17 25 26 22 27 29 27 21 15 9 6 12 19 18 22 27 30 30 28 22 25 21 21 23 26 23 21 19 17 16 14 13 13 13 12 11 10 9 7 5 3 1 2 4 6 7
10 12 15 18 23 25 25 25 25 26 24 10 16 11 11 25 21 22 25 24 30 30 24 24 22 21 23 23 23 21 18 16 15 14 13 13 13 12 11 9 8 6 3 2 3 5 7 9 10
16 14 20 23 21 25 23 24 25 21 22 19 14 17 16 18 24 24 25 25 29 28 27 23 23 21 21 22 22 20 17 16 16 14 13 12 12 12 10 8 6 4 4 4 5 7 9 10 11
14 15 25 23 21 27 20 24 25 25 17 16 14 8 17 20 29 25 24 26 31 30 26 24 23 23 21 21 20 19 17 16 15 14 13 12 11 10 8 7 6 4 4 5 5 7 9 10 11
19 16 18 26 25 20 22 24 22 22 17 15 18 21 20 29 28 27 27 24 28 27 26 25 23 23 21 20 21 19 18 17 15 13 12 12 10 9 7 5 7 3 3 3 3 5 8 9 11
17 16 25 23 23 23 23 25 26 18 15 19 22 21 24 24 23 22 23 25 26 27 25 26 26 25 25 20 22 20 19 17 14 12 13 13 13 6 10 6 4 2 2 3 3 6 9 8 9
19 21 22 21 24 26 27 24 26 18 18 21 23 21 19 18 19 18 23 28 27 27 27 28 29 28 25 25 25 20 19 15 16 14 13 8 12 10 11 9 8 5 4 3 5 10 10 4 9
19 22 24 23 25 25 25 23 27 25 15 20 24 23 21 20 19 20 22 28 30 31 30 28 31 28 27 24 25 23 21 19 18 18 12 11 11 12 10 10 11 5 11 3 8 10 8 8 12
19 19 20 22 25 23 25 22 26 22 14 20 20 19 25 17 17 22 25 28 28 33 31 31 31 26 30 26 25 26 24 22 20 18 14 10 13 10 7 4 6 5 3 5 5 9 10 10 17
19 17 17 17 23 23 24 22 23 19 18 22 7 6 21 23 18 16 26 24 31 34 37 34 32 24 27 24 22 24 23 19 20 14 13 12 9 11 7 6 5 5 4 6 5 10 12 12 13
17 18 16 21 19 21 19 24 25 21 22 20 11 8 12 21 22 16 20 38 30 36 33 36 30 24 28 17 22 19 18 17 15 16 17 10 9 6 6 7 5 3 1 5 6 8 9 9 10
20 15 16 20 19 20 24 26 24 21 21 24 20 14 15 13 12 24 24 29 37 37 37 32 29 23 26 19 20 20 18 16 15 17 10 9 8 5 10 5 5 1 2 5 6 6 7 8 9
16 16 20 21 19 20 27 28 27 23 22 22 19 13 16 11 15 18 31 35 39 38 37 29 32 26 23 22 18 17 18 12 14 11 10 11 9 8 8 3 1 4 3 5 8 9 9 11 12
13 14 18 20 17 21 27 28 25 25 26 24 23 18 15 14 17 15 40 46 37 38 36 29 28 26 25 26 22 16 19 9 12 9 10 10 7 7 5 2 2 3 6 9 10 9 8 9 11
21 14 21 20 23 22 26 26 27 24 24 24 24 21 17 17 12 24 15 37 36 37 34 30 28 30 27 25 21 21 20 11 12 11 8 7 3 2 3 5 4 4 7 7 8 7 7 8 11
15 11 24 20 11 14 19 27 29 26 25 24 24 17 18 17 16 17 23 27 28 31 31 29 26 26 25 23 20 21 20 16 14 12 12 10 10 9 5 5 6 5 5 6 8 11 9 11 16
16 18 17 17 14 19 25 21 24 28 25 20 26 21 21 19 19 14 20 28 26 26 29 27 25 28 24 24 21 20 20 19 19 15 12 10 6 5 4 4 8 11 12 11 9 11 12 9 12
14 17 20 17 4 7 16 12 20 24 22 21 18 18 20 20 22 18 13 17 26 26 27 24 26 28 26 26 21 23 21 17 15 19 14 12 11 13 13 13 14 11 10 11 10 10 12 12 12
14 12 17 17 13 15 18 15 18 21 26 24 22 19 21 24 22 26 23 28 31 29 28 27 27 25 23 24 22 20 18 18 23 21 18 16 15 14 14 14 15 13 13 13 12 14 15 13 15
10 10 20 12 13 14 21 18 19 20 26 24 23 22 23 21 22 24 29 33 31 31 29 27 27 25 26 20 24 19 19 24 23 18 18 16 15 14 14 13 13 13 12 11 12 13 16 16 16
12 7 9 10 11 14 23 20 18 26 31 27 25 24 19 20 21 25 24 17 21 25 29 29 28 24 26 22 22 16 26 22 23 21 18 18 16 13 12 13 12 12 12 13 13 15 16 18 18
14 14 10 8 5 11 22 20 18 13 29 28 27 23 21 21 25 28 24 22 26 33 25 27 28 26 22 24 22 27 24 20 21 19 18 19 17 13 13 13 12 13 12 13 13 15 16 14 17
13 17 4 4 18 16 13 21 19 13 13 26 26 25 25 25 26 27 25 29 31 31 36 31 29 26 25 31 28 26 26 22 24 24 23 19 17 16 14 13 14 13 13 12 13 15 15 13 13
16 2 8 8 5 8 10 17 12 14 14 18 26 29 26 25 28 28 30 30 35 38 41 35 33 32 30 29 28 26 30 27 23 23 22 20 19 16 15 15 15 14 12 10 13 14 13 13 13
10 15 13 14 12 13 9 8 10 15 10 9 24 25 25 25 24 27 27 25 58 48 40 41 33 32 30 27 29 29 28 26 24 23 21 19 18 16 16 15 14 13 13 14 14 13 13 13 13
15 15 14 9 16 13 11 13 15 7 15 11 14 23 25 22 24 22 21 23 32 36 36 34 35 36 29 29 30 29 28 27 26 24 22 19 18 15 15 14 13 13 12 12 13 14 12 13 12
Wind_Direction
265 267 251 256 238 229 247 248 246 270 282 138 140 155 219 111 129 221 312 88 122 134 148 148 150 152 154 157 155 151 146 146 144 138 135 135 130 126 125 122 115 109 105 108 107 104 95 87 87
274 256 231 271 234 236 239 239 253 247 266 80 93 180 330 82 108 152 200 125 128 138 137 145 153 155 156 158 157 154 150 150 146 140 137 138 137 136 136 128 123 120 120 121 117 110 102 83 49
269 264 235 224 236 237 242 246 228 255 216 134 132 225 249 98 132 152 193 124 128 138 140 150 153 156 155 155 158 156 154 152 147 144 141 139 142 141 140 138 132 129 124 116 109 107 103 48 334
239 239 244 246 240 225 245 257 264 229 250 135 180 178 97 108 119 132 139 124 132 146 141 148 150 153 153 155 159 158 156 152 149 147 143 143 142 141 142 142 139 136 131 124 113 85 2 318 314
234 250 229 233 241 250 239 241 261 276 271 154 170 227 112 108 116 132 136 135 142 144 139 145 151 151 150 154 159 159 159 154 152 150 148 145 145 145 147 148 146 144 142 135 117 309 307 305 306
226 233 240 234 243 238 248 257 247 257 273 186 168 213 115 116 128 138 138 139 137 133 136 140 149 152 155 158 160 161 160 155 154 152 150 147 148 149 153 156 157 159 170 199 272 291 299 304 309
244 225 236 247 248 238 242 245 260 261 254 244 200 181 131 141 135 142 141 146 138 130 141 141 144 154 160 161 162 160 161 160 158 155 155 153 155 157 163 168 172 193 229 263 284 300 307 311 311
233 251 251 241 252 257 247 237 241 259 265 237 267 184 146 140 137 141 142 143 128 135 141 146 147 146 149 158 164 162 163 164 163 161 160 160 160 166 171 181 182 215 254 275 299 314 322 318 315
242 245 245 248 250 252 264 267 226 240 249 256 268 73 108 121 140 148 150 142 137 138 149 153 153 150 148 153 163 163 165 165 166 164 164 163 159 173 177 166 209 263 268 290 318 339 333 330 321
233 238 241 254 259 266 265 264 269 215 204 241 257 105 117 136 148 158 157 152 148 146 159 156 155 153 151 151 158 161 164 165 163 169 173 164 182 174 209 204 214 213 312 287 282 307 310 301 320
236 245 255 249 259 274 276 270 270 254 202 225 239 133 139 151 156 169 169 159 159 156 164 162 156 159 154 157 152 157 162 167 177 181 185 188 190 198 200 224 208 198 255 272 271 295 286 293 304
248 244 247 259 274 278 277 282 281 271 208 226 240 153 154 164 169 177 180 162 162 158 165 160 157 162 158 160 161 165 167 177 181 187 187 204 188 195 228 227 199 250 236 251 282 304 331 336 321
258 249 261 253 256 270 273 282 279 288 205 250 241 233 155 163 174 190 170 155 162 157 158 156 164 170 159 163 169 173 176 176 179 181 192 203 202 202 215 258 221 290 316 296 305 323 359 338 354
283 281 270 260 265 250 263 269 273 270 282 228 179 272 165 163 178 204 148 153 169 162 158 156 164 162 163 172 181 176 162 180 161 180 192 209 223 200 204 243 230 255 261 310 322 338 352 344 345
267 274 272 267 255 255 255 254 263 248 264 273 188 196 240 165 174 186 163 157 155 149 151 149 159 170 163 174 158 151 164 156 172 187 179 189 209 214 206 227 210 232 272 312 313 340 353 350 349
277 267 253 249 232 243 253 241 242 249 257 262 233 182 237 203 180 177 177 149 145 143 146 151 159 167 167 157 156 164 181 167 184 167 164 176 201 221 198 233 196 91 256 323 3 355 357 344 336
255 252 248 244 243 238 232 239 240 231 240 250 252 207 216 204 175 232 132 135 145 147 152 155 161 164 162 164 171 184 181 180 164 146 169 177 201 208 209 254 189 270 345 19 7 350 336 331 325
260 308 269 253 244 224 232 234 235 237 222 234 244 221 205 207 216 155 137 136 140 146 150 154 153 166 167 177 182 174 176 173 152 158 177 163 198 202 211 300 337 49 23 15 2 352 333 341 334
298 279 280 285 270 236 228 225 234 235 237 216 231 209 197 187 183 138 141 123 133 145 154 164 161 171 172 178 183 158 172 174 153 153 115 146 156 150 112 102 79 50 13 13 7 357 332 32 6
289 276 274 254 277 308 271 221 220 224 235 218 219 211 199 206 178 146 133 128 144 148 157 167 160 169 172 179 177 164 161 169 137 137 112 116 101 99 76 91 60 23 31 38 37 28 23 53 41
275 271 272 289 6 316 293 247 208 221 229 238 197 211 212 197 160 152 148 143 146 147 162 163 163 180 180 175 174 171 165 136 132 132 113 91 105 105 91 73 81 69 77 58 44 50 36 25 45
266 279 285 268 285 263 278 239 240 208 223 229 228 207 188 208 155 161 157 140 147 157 159 163 169 181 178 175 170 144 142 141 142 125 130 118 101 94 96 90 92 80 90 75 55 62 47 60 39
261 283 292 282 262 262 257 260 237 211 214 213 221 209 204 198 178 154 167 156 160 165 162 165 172 175 178 176 158 155 145 138 143 127 122 117 108 100 94 93 90 90 77 70 57 67 62 65 64
249 283 284 254 264 252 257 234 227 206 208 214 204 222 201 182 170 150 154 162 167 163 157 162 171 177 173 166 165 166 141 133 133 132 128 125 108 95 89 81 89 91 85 77 82 70 74 63 75
234 238 265 230 225 238 244 244 248 210 199 202 205 207 205 187 169 150 154 150 145 145 152 160 178 168 169 159 156 151 143 142 140 142 138 133 118 104 94 101 94 85 85 88 85 77 70 65 62
268 224 242 263 234 273 239 224 237 219 188 199 195 201 196 210 152 157 157 154 162 155 152 173 177 167 163 154 154 138 140 134 144 134 142 118 114 113 104 101 98 94 94 90 86 83 72 71 62
224 243 200 217 272 267 268 218 234 227 232 188 189 193 192 207 163 158 160 157 169 160 167 175 171 167 158 133 135 134 134 135 125 122 115 119 120 119 115 106 97 93 91 91 88 79 72 68 74
253 283 244 208 261 234 241 209 204 205 211 185 188 186 182 206 165 161 168 166 169 165 165 169 166 154 130 132 128 123 124 123 121 124 123 119 115 117 110 103 99 93 89 80 95 78 77 74 67
224 226 235 265 279 296 322 235 188 171 220 216 183 182 174 203 159 161 165 156 168 167 157 153 149 137 131 139 131 123 121 121 122 118 118 118 116 111 107 101 96 93 89 82 85 87 81 76 66
205 262 243 252 277 270 287 279 304 314 195 231 212 173 175 206 154 162 148 139 137 145 143 139 136 129 143 135 130 127 126 127 124 121 118 115 110 108 103 102 101 97 94 91 83 81 76 68 59
Height
759 759 759 754 767 750 749 730 702 695 682 681 701 715 707 704 732 774 726 725 726 735 737 741 745 750 755 761 766 770 773 777 780 781 784 787 790 793 794 796 797 798 799 800 800 801 802 803 804
759 758 755 748 764 762 741 712 708 688 668 665 675 686 693 714 710 729 724 723 726 737 741 742 747 752 756 763 768 771 775 779 782 785 786 789 791 793 795 797 798 799 799 800 801 802 803 804 805
758 756 753 754 753 750 735 702 691 674 663 670 681 679 682 710 708 717 719 719 727 738 744 745 748 753 758 764 770 774 777 781 784 787 789 791 793 794 796 797 798 799 800 802 803 803 803 804 805
757 752 746 750 742 727 719 698 677 671 659 663 674 691 691 699 704 711 716 719 730 741 744 746 750 755 760 765 772 776 780 782 786 788 791 792 794 796 797 798 799 800 801 802 803 803 804 804 805
753 742 753 747 738 718 699 692 679 681 668 669 675 693 699 702 706 712 718 724 731 741 743 747 752 758 762 766 773 778 781 784 787 790 792 793 794 796 797 799 799 800 802 802 803 803 804 804 804
751 744 750 746 729 712 698 682 678 680 668 663 677 689 701 702 707 712 717 725 724 735 745 748 755 761 765 769 773 779 783 785 789 791 793 793 795 796 797 799 800 801 802 802 802 803 803 803 802
750 744 747 735 720 711 697 683 681 676 673 672 660 689 692 695 706 712 718 723 727 736 745 752 756 763 768 771 775 779 783 787 790 791 793 794 795 796 798 798 800 801 801 801 802 801 802 801 800
743 741 739 728 725 713 683 680 675 674 675 658 657 681 696 688 701 712 719 724 730 739 747 754 759 763 768 773 777 780 784 788 791 792 793 794 795 796 797 798 799 800 801 801 801 800 800 798 798
736 748 743 732 721 709 683 682 666 665 672 668 665 672 675 689 701 712 719 725 733 742 751 755 760 764 767 773 777 781 785 788 791 793 793 794 795 796 797 798 799 799 800 800 800 799 798 797 796
739 742 738 720 710 704 689 681 671 674 678 682 676 676 684 693 701 710 717 724 734 742 751 754 759 763 767 773 777 781 785 787 790 792 793 794 795 796 797 798 798 799 799 799 798 796 794 795 793
735 738 724 716 710 702 695 685 671 674 686 684 681 683 688 694 702 708 715 721 730 740 747 752 756 762 767 771 777 781 784 787 790 791 792 793 796 796 797 796 797 796 796 796 796 794 793 793 794
734 724 721 719 711 708 703 689 684 673 675 670 668 676 682 690 698 703 709 715 725 735 742 749 754 760 765 770 774 779 782 785 788 789 791 793 794 795 796 796 796 795 795 796 796 796 795 795 794
725 720 717 713 713 709 704 701 691 682 666 669 666 666 678 689 694 696 703 713 723 730 739 747 753 759 762 767 772 775 779 782 785 788 790 792 793 794 795 795 795 796 796 797 796 797 795 794 794
721 716 715 714 713 710 712 704 693 683 674 672 670 670 673 684 691 694 697 710 719 728 734 744 751 757 761 767 771 773 776 779 783 786 789 792 792 793 794 795 795 797 797 797 798 797 796 796 795
725 730 722 716 712 712 708 715 704 684 679 676 672 677 674 673 682 691 696 705 721 722 732 741 750 756 761 766 769 773 777 778 782 784 787 791 792 793 793 795 795 796 797 798 798 798 797 796 795
733 730 735 716 712 712 716 723 702 688 689 683 675 677 678 679 672 685 692 704 711 718 730 740 748 757 761 766 768 772 776 778 780 782 786 789 792 792 793 795 795 795 797 798 798 798 797 796 795
731 737 727 718 704 709 714 716 701 691 692 688 680 677 678 674 682 678 678 694 706 717 729 739 747 755 760 766 769 772 774 775 777 781 784 788 791 793 794 795 794 796 798 798 798 798 797 796 794
731 736 717 712 700 703 706 706 699 689 686 688 682 676 678 680 671 671 667 670 700 713 726 738 748 754 760 765 767 769 772 775 777 780 784 787 791 793 794 795 795 797 797 796 797 797 797 794 795
726 746 736 708 691 693 695 700 697 687 681 681 677 673 677 677 672 678 687 681 694 707 723 737 746 752 758 763 765 767 769 776 777 782 784 787 790 791 794 796 796 796 797 798 798 796 796 794 794
736 735 739 709 691 697 690 689 687 680 676 670 672 669 672 673 672 679 671 687 704 708 721 738 745 751 756 760 763 766 768 775 777 780 784 790 792 793 794 795 796 796 798 798 798 797 796 796 795
731 726 719 709 708 706 702 686 679 674 667 661 660 664 667 668 674 678 693 699 709 706 725 736 743 751 756 759 763 766 770 773 777 782 786 791 792 792 794 795 796 797 798 799 800 799 797 797 798
736 720 712 709 723 737 695 721 682 673 671 665 658 657 660 664 670 680 691 692 699 714 726 738 745 751 755 758 762 763 767 771 778 783 788 791 793 794 796 796 797 798 799 801 801 800 801 798 799
729 724 718 711 709 714 712 708 679 668 673 665 661 655 656 657 663 680 696 698 713 717 727 736 745 750 753 757 760 765 767 772 779 784 788 791 794 795 797 798 798 801 802 802 804 800 801 801 801
716 725 720 712 713 722 695 706 678 663 664 660 655 652 650 651 658 672 693 706 712 715 724 735 743 747 751 756 759 765 767 774 779 785 789 793 795 797 798 799 800 802 802 804 804 803 804 804 802
717 729 737 728 724 719 682 684 661 636 643 645 649 648 645 646 652 670 684 697 705 713 721 731 742 745 749 754 758 764 768 775 779 783 789 791 795 798 798 799 802 803 804 805 805 805 805 805 805
721 718 728 739 718 701 667 675 644 619 620 627 635 641 644 642 658 671 683 692 703 709 714 733 742 744 747 753 758 764 769 775 780 783 788 790 794 799 799 801 803 804 806 807 807 807 807 808 809
716 725 720 741 723 717 676 647 632 620 622 622 629 638 641 640 656 670 684 694 700 700 714 728 735 744 750 751 758 764 771 776 778 785 788 792 796 800 801 802 804 806 807 809 809 808 808 811 813
708 732 725 721 723 712 664 647 645 633 626 616 625 631 633 637 653 659 671 678 689 685 705 723 734 741 746 755 760 766 768 774 782 787 791 794 796 801 801 803 804 806 808 810 810 812 812 814 815
708 715 709 704 702 703 695 656 618 623 619 618 617 621 629 632 637 648 659 682 666 709 708 709 728 741 746 758 763 766 772 777 784 788 792 796 799 800 802 804 807 809 811 811 812 815 815 816 817
697 703 699 710 700 682 684 672 636 626 617 616 614 614 623 626 632 643 663 671 657 697 706 714 724 731 757 761 763 768 773 780 784 788 792 796 799 802 803 804 808 810 812 813 815 816 818 818 819